sat.trackr.live / text

‹ back to catalog

STARLINK-5746

NORAD 56926 · 2023-083BC

PAYLOAD ACTIVE UNKNOWN

§ Identity

Operator
Country
US
Launch date
2023-06-12
Launch site
AFETR
Launch vehicle
Mass (kg)
RCS (m²)

Purposes: comms

External: N2YO · Heavens-Above · Gunter

§ Orbital elements

Epoch: 2026-09-20T21:41:17.131200Z

Period
94.27 min
Inclination
43.0019°
Eccentricity
0.0000788
Mean motion
15.27566942 rev/d
Perigee alt
482.5 km
Apogee alt
483.6 km
Semi-major
6,861.2 km
B*
-3.3908e-5
RAAN
48.2043°
Arg perigee
258.1724°
Mean anomaly
101.9039°
Rev number
18,165

§ Raw data

STARLINK-57461 56926U 23083BC  26263.90367050 -.00001194  00000+0 -33908-4 0  99962 56926  43.0019  48.2043 0000788 258.1724 101.9039 15.27566942181651

JSON: /api/v1/satellites/56926 · /tle

For live sub-satellite position, see the globe view (requires WebGL).

§ Visibility from observer

Set your observer location to see the next 7 days of passes ≥ 10°. The values pass through the URL so the page stays shareable.

No JS? Fill the form by hand. The geolocation button needs JavaScript.